Location: Seattle
(47.6064°N, 122.3308°W)
Time: 01:45:42
(UTC-08:00)

Tiros 1 - Pass Details

Date: 28 November 2020
Orbit: 630 x 663 km, 48.4° (Epoch: 28 January)

Event Time Altitude Azimuth Distance (km) Brightness Sun altitude
Rises 18:15:04 0° 271° (W) 2,991 12.1 -18.6°
Reaches altitude 10° 18:17:26 10° 272° (W) 2,076 10.9 -19.0°
Maximum altitude 18:22:14 80° 0° (N) 671 7.1 -19.8°
Enters shadow 18:23:36 47° 79° (E) 871 7.3 -20.0°
Drops below altitude 10° 18:27:00 10° 88° (E) 2,058 - -20.6°
Sets 18:29:20 0° 89° (E) 2,963 - -20.9°
